Waarnemingen

Advertentie
Mijn weer
La Hague, Frankrijk (7020): temperatuur & dauwpunt: 13.11.2017 20:00:00 - 19.11.2017 20:00:00 (CET)La Hague, Frankrijk (7020): windsnelheid & windstoten: 13.11.2017 20:00:00 - 19.11.2017 20:00:00 (CET)La Hague, Frankrijk (7020): windrichting: 13.11.2017 20:00:00 - 19.11.2017 20:00:00 (CET)La Hague, Frankrijk (7020): luchtdruk: 13.11.2017 20:00:00 - 19.11.2017 20:00:00 (CET)La Hague, Frankrijk (7020): zicht: 13.11.2017 20:00:00 - 19.11.2017 20:00:00 (CET)La Hague, Frankrijk (7020): neerslag: 13.11.2017 20:00:00 - 19.11.2017 20:00:00 (CET)
Datum & Tijd tt [°C] td [°C] ff [km/u] ff [kn] fx [km/u] fx [kn] dd ppp [hPa] vv [km] rr [mm]
19.11.2017 20:00:00 10,9 6,0 12 6 20 11 ZW 1024,8 - 0,0
19.11.2017 19:00:00 11,0 5,3 7 4 12 7 WZW 1025,0 16 0,0
19.11.2017 18:00:00 10,9 4,8 4 2 10 5 W 1024,9 - 0,0
19.11.2017 17:00:00 11,0 4,9 5 3 12 6 WNW 1024,9 - 0,0
19.11.2017 16:00:00 11,2 5,3 0 0 7 4 N 1024,9 16 0,0
19.11.2017 15:00:00 11,4 5,0 3 2 11 6 W 1024,8 - 0,0
19.11.2017 14:00:00 11,4 5,0 0 0 12 6 N 1025,2 - 0,0
19.11.2017 13:00:00 11,7 5,1 5 3 12 6 NO 1025,3 16 0,0
19.11.2017 12:00:00 11,2 5,5 4 2 14 8 NNO 1025,2 - 0,0
19.11.2017 11:00:00 11,0 5,1 9 5 17 9 NNO 1025,2 - 0,0
19.11.2017 10:00:00 10,8 5,1 11 6 22 12 NO 1024,8 16 0,0
19.11.2017 09:00:00 10,8 5,5 12 7 26 14 NNO 1024,2 - 0,0
19.11.2017 08:00:00 10,5 5,7 18 10 29 16 NO 1023,7 - 0,0
19.11.2017 07:00:00 10,7 5,9 19 11 30 16 NO 1023,3 12 0,0
19.11.2017 06:00:00 10,4 7,6 21 12 31 17 ONO 1022,9 - 0,0
19.11.2017 05:00:00 10,7 9,1 18 10 27 15 NO 1022,7 - 0,0
19.11.2017 04:00:00 10,8 9,4 21 11 51 27 NO 1022,5 12 1,2
19.11.2017 03:00:00 13,6 11,3 27 15 42 23 WNW 1022,0 - 0,0
19.11.2017 02:00:00 13,7 11,0 27 15 42 23 WNW 1022,2 - 0,0
19.11.2017 01:00:00 13,5 10,3 30 16 46 25 W 1022,8 15 0,0
19.11.2017 00:00:00 13,4 10,2 33 18 45 24 W 1022,7 - 0,0
18.11.2017 23:00:00 13,4 10,4 32 17 46 25 W 1023,1 - 0,0
18.11.2017 22:00:00 13,2 10,0 34 18 48 26 W 1023,2 15 0,0
18.11.2017 21:00:00 13,2 10,2 35 19 48 26 W 1023,4 - 0,0
18.11.2017 20:00:00 13,0 10,0 34 18 46 25 W 1023,6 - 0,0
18.11.2017 19:00:00 12,7 9,1 33 18 45 24 W 1023,7 15 0,0
18.11.2017 18:00:00 12,5 9,0 31 17 45 24 W 1024,0 - 0,0
18.11.2017 17:00:00 12,4 8,5 28 15 39 21 W 1024,3 - 0,0
18.11.2017 16:00:00 12,6 8,1 29 16 39 21 WZW 1024,5 18 0,0
18.11.2017 15:00:00 12,3 7,2 28 15 36 20 WZW 1025,0 - 0,0
18.11.2017 14:00:00 12,3 6,1 26 14 34 18 WZW 1025,5 - 0,0
18.11.2017 13:00:00 11,8 5,6 22 12 31 17 WZW 1026,3 20 0,0
18.11.2017 12:00:00 11,6 5,9 18 10 26 14 WZW 1026,9 - 0,0
18.11.2017 11:00:00 11,1 5,6 17 9 23 12 W 1027,1 - 0,0
18.11.2017 10:00:00 10,7 5,0 11 6 21 11 W 1026,9 20 0,0
18.11.2017 09:00:00 10,3 4,9 13 7 21 11 WNW 1027,1 - 0,0
18.11.2017 08:00:00 9,8 4,0 11 6 19 11 WNW 1026,7 - 0,0
18.11.2017 07:00:00 9,6 3,6 14 8 20 11 WNW 1026,7 20 0,0
18.11.2017 06:00:00 9,5 3,7 13 7 18 10 NW 1027,1 - 0,0
18.11.2017 05:00:00 9,3 3,5 11 6 18 10 NNW 1027,0 - 0,0
18.11.2017 04:00:00 9,5 3,7 12 7 22 12 N 1027,6 20 0,0
18.11.2017 03:00:00 9,4 2,3 10 5 21 11 NNW 1027,9 - 0,0
18.11.2017 02:00:00 9,4 1,8 11 6 20 11 NNW 1028,3 - 0,0
18.11.2017 01:00:00 9,1 1,0 7 4 14 8 NNW 1028,3 20 0,0
18.11.2017 00:00:00 8,5 1,9 6 3 11 6 NNW 1028,3 - 0,0
17.11.2017 23:00:00 5,3 -0,1 0 0 5 3 N 1028,7 - 0,0
17.11.2017 22:00:00 6,2 1,1 0 0 9 5 N 1028,6 25 0,0
17.11.2017 21:00:00 8,4 1,3 5 3 19 11 NO 1028,7 - 0,0
17.11.2017 20:00:00 9,6 2,9 13 7 22 12 NNO 1028,9 - 0,0
17.11.2017 19:00:00 9,7 3,9 14 8 22 12 NNO 1028,9 18 0,0
17.11.2017 18:00:00 9,8 4,2 12 7 22 12 NO 1028,5 - 0,0
17.11.2017 17:00:00 10,3 4,6 12 7 19 10 NO 1028,5 - 0,0
17.11.2017 16:00:00 10,9 5,2 16 9 24 13 NNO 1028,7 18 0,0
17.11.2017 15:00:00 11,8 5,6 17 9 26 14 NO 1028,8 - 0,0
17.11.2017 14:00:00 12,9 5,8 14 8 22 12 NNO 1029,3 - 0,0
17.11.2017 13:00:00 12,6 5,7 12 7 21 12 NO 1029,1 20 0,0
17.11.2017 12:00:00 12,6 6,0 16 9 28 15 ONO 1029,4 - 0,0
17.11.2017 11:00:00 11,7 6,2 20 11 30 16 ONO 1029,0 - 0,0
17.11.2017 10:00:00 11,5 6,4 23 12 37 20 ONO 1029,0 20 0,0
17.11.2017 09:00:00 10,9 6,4 29 15 38 21 ONO 1028,5 - 0,0
17.11.2017 08:00:00 11,2 6,5 26 14 37 20 ONO 1028,5 - 0,0
17.11.2017 07:00:00 11,2 7,3 23 13 37 20 NO 1028,3 14 0,0
17.11.2017 06:00:00 11,4 7,9 25 13 39 21 NO 1028,1 - 0,0
17.11.2017 05:00:00 11,4 8,1 24 13 41 22 NO 1027,9 - 0,0
17.11.2017 04:00:00 11,7 8,7 27 15 42 23 ONO 1027,7 14 0,0
17.11.2017 03:00:00 11,8 8,6 28 15 41 22 NO 1027,3 - 0,0
17.11.2017 02:00:00 11,8 8,3 28 15 40 21 NO 1027,0 - 0,0
17.11.2017 01:00:00 12,4 9,4 22 12 34 18 NO 1026,8 14 0,0
17.11.2017 00:00:00 12,8 10,5 23 12 29 16 NNO 1026,6 - 0,0
16.11.2017 23:00:00 13,3 10,8 22 12 29 16 NNO 1026,1 - 0,0
16.11.2017 22:00:00 13,4 9,1 12 6 15 8 N 1026,1 20 0,0
16.11.2017 21:00:00 13,0 9,1 10 6 21 11 NNW 1025,8 - 0,0
16.11.2017 20:00:00 13,0 8,9 18 10 23 12 NNW 1025,6 - 0,0
16.11.2017 19:00:00 12,7 8,6 16 9 22 12 NNW 1025,3 15 0,0
16.11.2017 18:00:00 12,8 7,9 16 8 21 11 NW 1024,8 - 0,0
16.11.2017 17:00:00 12,8 8,7 14 7 23 12 WNW 1024,3 - 0,0
16.11.2017 16:00:00 13,3 9,5 14 8 24 13 NW 1024,0 - 0,0
16.11.2017 15:00:00 13,2 9,6 17 9 26 14 ZW 1023,9 - 0,0
16.11.2017 14:00:00 13,1 9,0 19 10 26 14 ZW 1023,9 - 0,0
16.11.2017 13:00:00 12,7 8,4 16 9 25 14 ZW 1024,0 15 0,0
16.11.2017 12:00:00 12,6 7,9 18 10 30 16 ZW 1024,5 - 0,0
16.11.2017 11:00:00 12,4 7,9 24 13 33 18 ZW 1024,1 - 0,0
16.11.2017 10:00:00 12,4 7,7 20 11 28 15 ZW 1024,2 15 0,0
16.11.2017 09:00:00 12,3 8,0 22 12 29 15 ZW 1023,8 - 0,0
16.11.2017 08:00:00 12,0 7,7 21 11 30 16 ZW 1023,3 - 0,0
16.11.2017 07:00:00 11,9 7,6 16 9 29 15 ZZW 1023,0 14 0,0
16.11.2017 06:00:00 11,7 6,6 19 10 34 18 ZZW 1022,7 - 0,0
16.11.2017 05:00:00 11,8 6,5 22 12 29 16 ZZW 1022,6 - 0,0
16.11.2017 04:00:00 11,8 6,9 17 9 24 13 ZZW 1023,5 14 0,0
16.11.2017 03:00:00 12,1 7,4 19 11 32 17 ZW 1023,8 - 0,0
16.11.2017 02:00:00 12,3 7,8 19 11 31 17 ZW 1023,9 - 0,0
16.11.2017 01:00:00 12,2 7,7 17 9 26 14 ZZW 1024,2 14 0,0
16.11.2017 00:00:00 12,3 7,6 18 10 27 14 ZW 1024,4 - 0,0
15.11.2017 23:00:00 12,2 8,1 18 10 25 13 ZZW 1024,1 - 0,0
15.11.2017 22:00:00 12,5 9,1 15 8 23 12 ZZW 1024,4 14 0,0
15.11.2017 21:00:00 12,4 9,6 6 3 12 6 ZZO 1024,4 - 0,0
15.11.2017 20:00:00 13,0 10,0 9 5 16 9 WZW 1024,6 - 0,0
15.11.2017 19:00:00 12,8 9,6 12 7 21 11 WZW 1024,6 14 0,0
15.11.2017 18:00:00 13,1 10,3 16 9 20 11 WZW 1024,8 - 0,0
15.11.2017 17:00:00 13,1 10,6 13 7 20 11 WZW 1024,9 - 0,0
15.11.2017 16:00:00 13,2 10,9 15 8 20 11 WZW 1025,2 16 0,0
15.11.2017 15:00:00 13,4 10,6 14 8 21 11 WZW 1025,2 - 0,0
15.11.2017 14:00:00 13,3 10,7 16 9 25 13 WZW 1025,3 - 0,0
15.11.2017 13:00:00 13,3 10,7 19 10 26 14 WZW 1025,7 16 0,0
15.11.2017 12:00:00 13,6 10,6 16 8 22 12 WZW 1025,9 - 0,0
15.11.2017 11:00:00 13,7 9,7 10 5 20 11 W 1026,1 - 0,0
15.11.2017 10:00:00 13,5 9,7 16 9 21 12 W 1026,0 16 0,0
15.11.2017 09:00:00 13,2 9,4 16 8 22 12 W 1025,9 - 0,0
15.11.2017 08:00:00 13,1 9,9 16 9 23 12 W 1025,6 - 0,0
15.11.2017 07:00:00 13,2 10,2 18 10 25 14 WNW 1025,7 12 0,0
15.11.2017 06:00:00 13,2 9,1 18 10 25 14 W 1025,5 - 0,0
15.11.2017 05:00:00 13,1 8,8 18 10 23 13 W 1025,4 - 0,0
15.11.2017 04:00:00 13,2 8,7 19 10 25 13 W 1025,6 12 0,0
15.11.2017 03:00:00 13,2 8,7 18 10 26 14 W 1025,8 - 0,0
15.11.2017 02:00:00 13,0 8,3 20 11 29 15 W 1025,6 - 0,0
15.11.2017 01:00:00 13,2 8,1 19 10 31 17 W 1025,9 12 0,0
15.11.2017 00:00:00 12,9 8,4 22 12 34 19 W 1025,9 - 0,0
14.11.2017 23:00:00 12,9 7,8 16 9 35 19 W 1026,1 - 0,0
14.11.2017 22:00:00 12,8 8,5 24 13 33 18 W 1026,2 12 0,0
14.11.2017 21:00:00 12,6 8,7 18 10 35 19 W 1026,1 - 0,0
14.11.2017 20:00:00 12,5 8,4 23 12 35 19 W 1026,0 - 0,0
14.11.2017 19:00:00 12,8 8,7 24 13 37 20 W 1026,0 12 0,0
14.11.2017 18:00:00 12,8 9,2 29 16 40 22 W 1025,8 - 0,0
14.11.2017 17:00:00 13,2 8,9 32 18 42 23 WZW 1025,5 - 0,0
14.11.2017 16:00:00 13,1 8,0 26 14 35 19 W 1025,6 15 0,0
14.11.2017 15:00:00 12,9 7,8 23 13 36 19 W 1025,8 - 0,0
14.11.2017 14:00:00 12,9 7,1 23 12 33 18 W 1026,2 - 0,0
14.11.2017 13:00:00 12,9 7,6 23 12 34 18 W 1026,3 15 0,0
14.11.2017 12:00:00 12,7 6,7 24 13 36 19 W 1026,6 - 0,0
14.11.2017 11:00:00 12,5 6,3 22 12 33 18 W 1026,6 - 0,0
14.11.2017 10:00:00 12,2 6,2 22 12 33 18 W 1026,6 15 0,0
14.11.2017 09:00:00 12,0 5,8 23 12 32 17 W 1026,3 - 0,0
14.11.2017 08:00:00 11,8 5,4 21 11 33 18 W 1026,1 - 0,0
14.11.2017 07:00:00 11,6 5,7 19 10 30 16 W 1026,1 15 0,0
14.11.2017 06:00:00 11,5 4,7 21 12 32 18 W 1026,2 - 0,0
14.11.2017 05:00:00 11,6 5,5 22 12 33 18 W 1026,1 - 0,0
14.11.2017 04:00:00 11,2 5,7 22 12 30 16 WZW 1026,4 15 0,0
14.11.2017 03:00:00 10,8 4,5 15 8 23 12 W 1027,1 - 0,0
14.11.2017 02:00:00 10,6 3,6 17 9 26 14 WZW 1027,2 - 0,0
14.11.2017 01:00:00 10,1 3,4 13 7 22 12 W 1027,4 15 0,0
14.11.2017 00:00:00 9,4 2,0 10 6 18 10 W 1027,5 - 0,0
13.11.2017 23:00:00 7,2 1,5 5 3 12 7 ZW 1028,1 - 0,0
13.11.2017 22:00:00 9,1 1,7 7 4 15 8 WNW 1028,3 15 0,0
13.11.2017 21:00:00 9,2 1,1 6 3 20 11 NNW 1028,3 - 0,0
13.11.2017 20:00:00 9,1 1,3 10 6 20 11 NNW 1028,3 - 0,0

tt = temperatuur
td = dauwpunt
ff = windsnelheid
fx = windstoten
dd = windrichting
ppp = luchtdruk
vv = zicht
rr = neerslag

Weerstations in de omgeving